TURKSAT 5A

Last updated on Thu Jul 03 2025 00:02:48 GMT+0000 (Coordinated Universal Time)

1 47306U 21001A 25183.57274679 .00000162 00000+0 00000+0 0 9997 2 47306 0.0386 85.2283 0000251 305.0617 127.6759 1.00272764 16460
UTC large
Height (km)
Speed (km/s)
/
Latitude / Longitude
Inclination (degrees)
Orbital Period (minutes)
Azimuth
Elevation
Range (km)
Doppler Factor

Next 0 passes for location: London (51.5072 / 0.1276)

Sorry there are no passes over London.